FW3899 Weather Reports


time (UTC)temp
C
wind
direction
speed
KPH
gust
KPH
rain 1hr
cm
rain 24hr
cm
rain mn
cm
humidity
%
barometer
mb
20260502231524 13 225 6.4 9.7 0.00 0.00 0.00 75 1015.8
20260502230016 15 241 4.8 11.3 0.00 0.00 0.00 71 1015.7
20260502224512 15 266 6.4 11.3 0.00 0.00 0.00 72 1015.9
20260502223027 15 267 6.4 12.9 0.00 0.00 0.00 75 1015.8
20260502221507 15 253 6.4 11.3 0.00 0.00 0.00 75 1016.0
20260502220006 14 247 8.0 11.3 0.00 0.00 0.00 76 1015.8
20260502214504 14 240 4.8 6.4 0.00 0.00 0.00 77 1015.9
20260502213004 14 220 0.0 4.8 0.00 0.00 0.00 76 1015.8
20260502211503 14 220 4.8 8.0 0.00 0.00 0.00 73 1015.7
20260502210003 15 239 3.2 4.8 0.00 0.00 0.00 68 1015.7
20260502204503 16 241 0.0 3.2 0.00 0.00 0.00 65 1015.9
20260502203002 17 241 6.4 12.9 0.00 0.00 0.00 63 1015.7
20260502201501 18 237 6.4 14.5 0.00 0.00 0.00 60 1015.6
20260502200001 18 247 9.7 16.1 0.00 0.00 0.00 59 1015.8
20260502194601 17 246 8.0 14.5 0.00 0.00 0.00 61 1015.7
20260502193100 16 233 9.7 14.5 0.00 0.00 0.00 65 1015.7
20260502191603 16 206 3.2 6.4 0.00 0.00 0.00 70 1015.6
20260502190059 15 205 4.8 8.0 0.00 0.00 0.00 69 1015.6
20260502184558 16 204 3.2 8.0 0.00 0.00 0.00 68 1015.3
20260502183107 16 203 1.6 4.8 0.00 0.00 0.00 67 1015.3
20260502181558 17 209 4.8 6.4 0.00 0.00 0.00 65 1015.3
20260502163105 23 111 0.0 6.4 0.00 0.00 0.00 45 1015.6
20260502161559 23 86 1.6 6.4 0.00 0.00 0.00 45 1015.8
20260502151540 23 90 0.0 6.4 0.00 0.00 0.00 46 1016.5
20260502123013 22 58 6.4 12.9 0.00 0.00 0.00 51 1018.9
20260502121511 22 68 1.6 12.9 0.00 0.00 0.00 52 1019.0
20260502114506 21 8 4.8 12.9 0.00 0.00 0.00 54 1019.6
20260502113005 21 75 4.8 12.9 0.00 0.00 0.00 55 1019.9
20260502111502 22 47 8.0 12.9 0.00 0.00 0.00 56 1020.1
20260502110059 21 30 1.6 9.7 0.00 0.00 0.00 56 1020.4
20260502104557 21 284 3.2 9.7 0.00 0.00 0.00 59 1020.6
20260502103055 20 23 1.6 11.3 0.00 0.00 0.00 60 1020.7
20260502101556 20 74 4.8 11.3 0.00 0.00 0.00 58 1020.9
20260502071513 15 58 3.2 6.4 0.00 0.00 0.00 68 1022.2
20260502070016 15 74 0.0 4.8 0.00 0.00 0.00 70 1022.3
20260502064508 14 76 1.6 4.8 0.00 0.00 0.00 67 1022.3
20260502063005 15 220 1.6 3.2 0.00 0.00 0.00 66 1022.3
20260502061601 13 220 0.0 0.0 0.00 0.00 0.00 65 1022.4
20260502060057 13 220 0.0 3.2 0.00 0.00 0.00 67 1022.3
20260502054553 12 220 0.0 0.0 0.00 0.00 0.00 68 1022.4
20260502053053 11 220 0.0 0.0 0.00 0.00 0.00 73 1022.4
20260502051556 11 220 0.0 0.0 0.00 0.00 0.00 71 1022.4
20260502050045 10 220 0.0 0.0 0.00 0.00 0.00 77 1022.4
20260502044543 8 220 0.0 0.0 0.00 0.00 0.00 77 1022.2
20260502043038 7 220 0.0 3.2 0.00 0.00 0.00 77 1022.4
20260502041533 7 220 0.0 4.8 0.00 0.00 0.00 77 1022.4
20260502040030 7 220 1.6 8.0 0.00 0.00 0.00 78 1022.3
20260502034530 7 203 0.0 4.8 0.00 0.00 0.00 78 1022.2
20260502033029 7 203 3.2 6.4 0.00 0.00 0.00 80 1022.2
20260502031528 7 203 1.6 4.8 0.00 0.00 0.00 81 1022.3
20260502030026 7 202 0.0 3.2 0.00 0.00 0.00 78 1022.3
20260502024528 7 202 3.2 4.8 0.00 0.00 0.00 76 1022.5
20260502023023 7 202 0.0 4.8 0.00 0.00 0.00 75 1022.3
20260502021524 7 201 3.2 6.4 0.00 0.00 0.00 78 1022.4
20260502020020 7 200 1.6 4.8 0.00 0.00 0.00 75 1022.4
20260502014517 7 200 0.0 4.8 0.00 0.00 0.00 74 1022.4
20260502013017 7 200 0.0 3.2 0.00 0.00 0.00 74 1022.5
20260502011515 7 200 0.0 6.4 0.00 0.00 0.00 74 1022.5
20260502010020 8 199 1.6 6.4 0.00 0.00 0.00 73 1022.4
20260502004513 8 199 1.6 4.8 0.00 0.00 0.00 72 1022.4
20260502003009 8 197 3.2 6.4 0.00 0.00 0.00 71 1022.6
20260502001509 8 196 4.8 8.0 0.00 0.00 0.00 71 1022.6
20260502000008 8 196 1.6 4.8 0.00 0.00 0.00 71 1022.8
20260501234503 8 196 0.0 0.0 0.00 0.00 0.00 71 1022.6
20260501233001 9 196 0.0 4.8 0.00 0.00 0.00 69 1022.8